Location: 22
(39.7117°N, 89.5929°W)
Time: 05:52:56
(UTC-05:00)

Vanguard 1 Rocket - Pass Details

Date: 07 February 2023
Orbit: 652 x 4223 km, 34.3° (Epoch: 26 March)

Event Time Altitude Azimuth Distance (km) Brightness Sun altitude
Rises 11:31:32 0° 243° (WSW) 3,939 10.8 34.2°
Reaches altitude 10° 11:33:44 10° 239° (WSW) 3,250 10.6 34.3°
Maximum altitude 11:41:56 60° 161° (SSE) 2,136 10.7 34.6°
Drops below altitude 10° 11:58:14 10° 87° (E) 6,118 11.7 35.0°
Sets 12:04:12 0° 85° (E) 7,635 12.1 35.0°
